CZ-3B DEB, 40185

Orbit data source: Space-Track

CZ-3B DEB, 40185 is space debris in HEO originally from a launch on Mon, 19 Dec 2011 UTC launched from the Xichang Space Center, China (XSC). Debris objects in space refer to the collection of defunct objects orbiting the Earth. Examples of debris include non-operational satellites, rocket bodies, and fragments generated from explosions, collisions, or faulty payload assembly.

Loading next visibility...
Identifier
40185, 2011-077J
Orbit
HEO
Country
Flag of CNCN / PRC
Related business
Manufacturer
CALT
Mission
Spacecraft
Bus & Motor
Unknown
Mass
Unknown
Launch date (UTC)
2011-12-19 (15 years ago)
Launch vehicle
Unknown
Launch site
Xichang Space Center, China (XSC)
Object type
Payload
Rocket body
Debris
Shape & HBR
Unknown shape, 0.6 m
Radar Cross Section
Medium (>0.1 m² and <1 m²)

Expand to show TLE details & history
Last TLE update: 18 hours ago

TLE from 18 hours ago
0 CZ-3B DEB
1 40185U 11077J   26256.28068140 -.00000283  00000-0  14204-2 0  9991
2 40185  24.8112 212.3691 7458296 305.9369   5.9549  1.93044486 87037
Epoch: 2026-09-13T06:44Z
TLE epoch observation values (Epoch: 2026-09-13T06:44:10.872Z)
Latitude
-0.00113°
Longitude
118.85759°
Altitude
1,993.83 km
Speed
8.977 km/s
True Right ascension
14h 08m 43s
True Declination
0° 00' 04"
Sunlit
Object was in daylight at epoch
Visualization orbit readout
Latitude
Unknown
Longitude
Unknown
Altitude
Unknown
Speed
Unknown
Apparent Right ascension
Unknown
Apparent Declination
Unknown
Sunlit
N/A
Visualization observer readout
Local Sidereal Time
17:28:37
Azimuth
Unknown
Elevation
Unknown
Doppler factor
Unknown
Orbital elements
Apogee altitude
41,195.152 km
Perigee altitude
547.924 km
Semi-major axis
27,249.675 km
Eccentricity
0.74583
Inclination
24.8112°
RAAN
212.3691°
Arg. of periapsis
305.9369°
True anomaly
53.73193°
Mean anomaly
5.9549°
Eccentric anomaly
21.87969°
Mean motion
0.4825 °/min
Orbital period
746.11 mins
BSTAR
0.0014204
Loading maneuver chart data...
Computing Atmospheric mass density...
Loading historical data...
Loading historical data...
Loading historical data...
Loading historical data...
Loading historical data...
Loading historical data...
Loading historical data...

Documentation

Showing up to 5 results
|